GEOSCAN 1 (RS92S1)

Last updated on Mon Nov 03 2025 00:03:22 GMT+0000 (Coordinated Universal Time)

1 64880U 25155E 25306.24849372 .00012437 00000+0 50940-3 0 9996 2 64880 97.4276 270.2968 0006032 258.7384 101.3176 15.24419471 46125
UTC large
Height (km)
Speed (km/s)
/
Latitude / Longitude
Inclination (degrees)
Orbital Period (minutes)
Azimuth
Elevation
Range (km)
Doppler Factor

Next 0 passes for location: London (51.5072 / 0.1276)

Sorry there are no passes over London.